[[{"header":{"parameterUnit":"m.s-1","parameterCategory":1,"la1":30.2991,"la2":30.254,"lo1":-89.0895,"lo2":-89.0444,"dy":0.0017,"dx":0.0017,"nx":28,"ny":28,"refTime":"2026-02-13T09:00:00:Z","depth":0,"parameterNumber":2,"parameterNumberName":"U-component_of_WINDS"},"data":[0,0,0,0,0,0,0,0,0,0,0,0,0,0,0,0,0,0,0,0,0,0,0,0,0,0,0,0,0,0,0,0,0,0,0,0,0,0,0,0,0,0,0,0,0,0,0,0,0,0,0,0,0,0,0,0,0,0,0.2904,0.2905,0,0.304,0.3041,0.3043,0.3131,0.3132,0.3132,0.3133,0.3273,0.3276,0.328,0,0,0,0,0,0,0,0,0,0,0,0,0,0.2721,0.2724,0.2904,0.2905,0.2907,0.3039,0.3041,0.3043,0.3131,0.3132,0.3132,0.3133,0.3272,0.3276,0.328,0,0,0,0,0,0,0,0,0,0,0,0,0,0.2823,0.2725,0.2903,0.2967,0.2974,0.3039,0.3041,0.3044,0.3131,0.3132,0.3132,0.3133,0.3271,0.3276,0.328,0.3294,0,0,0.3295,0.3297,0,0,0,0,0,0,0,0,0.2817,0.2829,0.2956,0.2962,0.297,0.3069,0.3029,0.3128,0.3131,0.3071,0.3133,0.3134,0.3205,0.3215,0.3239,0.33,0.3306,0.3296,0.3298,0.3301,0.3302,0,0,0,0,0,0,0,0.281,0.2824,0.2958,0.2957,0.2966,0.2989,0.3004,0.3048,0.3132,0.3076,0.3083,0.3098,0.3209,0.3234,0.3243,0.3308,0.3295,0.33,0.3303,0.3305,0.3387,0.3387,0,0,0,0,0,0,0.2792,0.2817,0.2953,0.2962,0.2894,0.2991,0.3009,0.3037,0.3131,0.3147,0.3097,0.3102,0.3225,0.3237,0.3248,0.327,0.3301,0.3305,0.3308,0.3388,0.3387,0.3387,0,0,0,0,0,0,0.2788,0.2804,0.2948,0.2891,0.2911,0.2994,0.3025,0.3039,0.3064,0.3147,0.3163,0.3107,0.3226,0.3241,0.3282,0.3276,0.3307,0.3312,0.3389,0.3388,0.3387,0.3313,0,0,0,0,0,0,0.2782,0.2802,0.2807,0.2891,0.2914,0.2978,0.3024,0.3041,0.3072,0.3079,0.3161,0.3175,0.3228,0.3274,0.3286,0.3283,0.3315,0.339,0.3388,0.3387,0.3316,0.331,0.3304,0,0,0,0,0,0.2776,0.2781,0.2807,0.2823,0.2923,0.2978,0.2991,0.3052,0.3071,0.3078,0.3131,0.3172,0.3274,0.3277,0.3292,0.329,0.339,0.3389,0.3387,0.3319,0.3311,0.3304,0,0,0,0,0,0,0.2696,0.2794,0.2823,0.2856,0.2908,0.2993,0.3003,0.3041,0.3089,0.3094,0.3168,0.3185,0.3218,0.3259,0.326,0.3308,0.3337,0.3339,0.328,0.3273,0.3267,0.3257,0.3319,0,0,0,0,0,0.2682,0.2718,0.2802,0.2823,0.2847,0.292,0.2946,0.2989,0.3046,0.3068,0.3124,0.3178,0.3223,0.325,0.3296,0.3323,0.3342,0.3329,0.3322,0.3317,0.3317,0.3334,0.3329,0.3381,0.3381,0.3381,0,0,0.2654,0.2712,0.273,0.2808,0.2853,0.2889,0.2938,0.2974,0.3002,0.3074,0.3115,0.3158,0.3223,0.3257,0.3274,0.3291,0.3307,0.3315,0.331,0.3313,0.3332,0.3327,0.3322,0.338,0.338,0.3381,0,0,0.2621,0.2668,0.2691,0.2735,0.2802,0.2851,0.2856,0.2935,0.2966,0.3008,0.3063,0.3097,0.3172,0.3216,0.3248,0.3231,0.327,0.3243,0.3211,0.3226,0.3222,0.3219,0.3213,0.321,0.3243,0.3243,0.3243,0,0.2577,0.2633,0.2697,0.273,0.2763,0.2829,0.2852,0.2892,0.2971,0.2992,0.301,0.3105,0.3153,0.3198,0.3193,0.3217,0.3226,0.3235,0.3218,0.3215,0.3213,0.3208,0.3205,0.3239,0.324,0.324,0.3241,0,0.2576,0.2614,0.2625,0.2698,0.2732,0.276,0.2829,0.2855,0.2894,0.2941,0.2983,0.3043,0.3102,0.3116,0.3155,0.3166,0.3174,0.3203,0.3235,0.3203,0.3199,0.3198,0.3234,0.3235,0.3237,0.3237,0,0,0.2498,0.2606,0.2608,0.2643,0.2721,0.2752,0.2783,0.284,0.2861,0.2913,0.2941,0.3002,0.303,0.3066,0.311,0.3124,0.3106,0.3152,0.3155,0.3141,0.3122,0.3099,0.3096,0.3133,0.3133,0.3133,0.3117,0,0.2476,0.2535,0.2593,0.263,0.2666,0.2729,0.2756,0.2807,0.2852,0.2889,0.2938,0.298,0.3013,0.3036,0.3052,0.3105,0.3103,0.3107,0.316,0.3161,0.3141,0.3094,0.307,0.3052,0.3116,0.3116,0.3115,0,0.246,0.2508,0.2549,0.2624,0.2641,0.2664,0.272,0.2755,0.2814,0.2846,0.2885,0.2932,0.2968,0.2995,0.3045,0.3046,0.3071,0.31,0.3101,0.3108,0.3136,0.31,0.3048,0.3045,0.3114,0.3114,0.3114,0,0.2397,0.2473,0.2507,0.2534,0.2623,0.2637,0.2675,0.2735,0.2765,0.2815,0.2835,0.2888,0.2917,0.2957,0.3017,0.3031,0.3061,0.3092,0.3088,0.3086,0.3091,0.309,0.3042,0.3107,0.3107,0.3107,0.3107,0,0.2368,0.239,0.248,0.2501,0.2528,0.2595,0.262,0.2663,0.2716,0.2747,0.2805,0.2832,0.291,0.2946,0.2994,0.3028,0.3041,0.3067,0.3079,0.3062,0.3058,0.3079,0.3082,0.3107,0.3107,0.3107,0.3107,0,0.2303,0.2364,0.2406,0.2486,0.2506,0.2523,0.2591,0.2614,0.2661,0.2699,0.2712,0.2786,0.2832,0.2896,0.2962,0.2994,0.3021,0.3041,0.3001,0.3008,0.3,0.3,0.2964,0.2962,0.3027,0.3027,0.3026,0,0.228,0.2299,0.2381,0.2405,0.244,0.2479,0.251,0.2576,0.2606,0.2675,0.2689,0.274,0.2784,0.2855,0.2915,0.2965,0.2986,0.297,0.2995,0.2976,0.2986,0.2984,0.2986,0.2964,0.2963,0.2962,0.2962,0,0.2233,0.2262,0.2304,0.2356,0.2391,0.2436,0.2483,0.25,0.2576,0.2607,0.2654,0.2688,0.2755,0.2805,0.2863,0.2903,0.2945,0.2953,0.2955,0.2937,0.2913,0.2926,0.2985,0.2954,0.2955,0.2955,0.2956,0.2956,0.2189,0.2208,0.2268,0.2313,0.2355,0.2398,0.2423,0.2473,0.2513,0.2573,0.261,0.2655,0.2714,0.2797,0.2834,0.2871,0.2888,0.2891,0.2891,0.2891,0.2885,0.2907,0.2882,0.2883,0.2883,0.2883,0.2883,0,0.2144,0.2186,0.2226,0.229,0.2325,0.2361,0.2415,0.2442,0.2481,0.2532,0.2574,0.2629,0.2677,0.274,0.2793,0.281,0.283,0.2821,0.2821,0.2829,0.2867,0.286,0.2804,0.2804,0.2804,0.2804,0.2804,0.2804,0.2125,0.2159,0.2195,0.2251,0.2293,0.2338,0.2366,0.2405,0.2446,0.2504,0.2544,0.2585,0.2641,0.2698,0.2744,0.2761,0.2778,0.2762,0.2786,0.2819,0.2827,0.2833,0.2827,0.2766,0.2766,0.2745,0.2745,0.2745]},{"header":{"parameterUnit":"m.s-1","parameterCategory":1,"la1":30.2991,"la2":30.254,"lo1":-89.0895,"lo2":-89.0444,"dy":0.0017,"dx":0.0017,"nx":28,"ny":28,"refTime":"2026-02-13T09:00:00:Z","depth":0,"parameterNumber":3,"parameterNumberName":"V-component_of_WINDS"},"data":[0,0,0,0,0,0,0,0,0,0,0,0,0,0,0,0,0,0,0,0,0,0,0,0,0,0,0,0,0,0,0,0,0,0,0,0,0,0,0,0,0,0,0,0,0,0,0,0,0,0,0,0,0,0,0,0,0,0,1.3549,1.3549,0,1.3578,1.3578,1.3579,1.3632,1.3633,1.3634,1.3635,1.3662,1.3662,1.3662,0,0,0,0,0,0,0,0,0,0,0,0,0,1.3536,1.3536,1.3549,1.3549,1.355,1.3578,1.3578,1.3579,1.3632,1.3633,1.3635,1.3636,1.3662,1.3662,1.3662,0,0,0,0,0,0,0,0,0,0,0,0,0,1.3551,1.3536,1.3549,1.358,1.3583,1.3578,1.3578,1.3579,1.3632,1.3633,1.3635,1.3636,1.3662,1.3662,1.3662,1.3628,0,0,1.3661,1.366,0,0,0,0,0,0,0,0,1.355,1.3552,1.3575,1.3578,1.3581,1.3603,1.3584,1.3595,1.3631,1.3613,1.3635,1.3637,1.3641,1.3643,1.3645,1.3629,1.3631,1.3661,1.366,1.366,1.366,0,0,0,0,0,0,0,1.3549,1.3551,1.3561,1.3575,1.3579,1.3591,1.3595,1.3586,1.3618,1.3615,1.3619,1.3622,1.3643,1.3645,1.3646,1.3631,1.3661,1.366,1.366,1.366,1.3587,1.3586,0,0,0,0,0,0,1.3544,1.3549,1.356,1.3561,1.3569,1.359,1.3594,1.3595,1.3618,1.3623,1.362,1.3624,1.3645,1.3646,1.3647,1.3608,1.366,1.366,1.366,1.3589,1.3587,1.3585,0,0,0,0,0,0,1.3544,1.3545,1.3558,1.3557,1.3559,1.3589,1.3588,1.3594,1.3596,1.3622,1.3628,1.3616,1.3646,1.3647,1.3632,1.3609,1.366,1.3659,1.3591,1.3588,1.3586,1.353,0,0,0,0,0,0,1.3543,1.3544,1.3533,1.3556,1.3559,1.3544,1.3587,1.3594,1.3596,1.3601,1.362,1.3625,1.3647,1.3632,1.3632,1.361,1.3659,1.3593,1.359,1.3587,1.3534,1.3526,1.3519,0,0,0,0,0,1.3542,1.3515,1.3532,1.3533,1.3545,1.3543,1.3545,1.3572,1.3594,1.3581,1.3598,1.3624,1.3612,1.363,1.363,1.3608,1.3595,1.3591,1.3587,1.3537,1.3527,1.3519,0,0,0,0,0,0,1.3488,1.3519,1.3537,1.3517,1.3527,1.3552,1.3538,1.3561,1.3564,1.3568,1.3601,1.3605,1.3585,1.3595,1.3615,1.3575,1.3607,1.3603,1.357,1.356,1.3553,1.355,1.3659,0,0,0,0,0,1.3474,1.347,1.3497,1.3476,1.348,1.3508,1.3508,1.3528,1.3539,1.3543,1.3559,1.3568,1.3566,1.3564,1.3564,1.3536,1.354,1.352,1.3512,1.3506,1.3502,1.3486,1.3477,1.3573,1.3573,1.3573,0,0,1.3444,1.346,1.3456,1.3466,1.3476,1.347,1.3511,1.3504,1.3499,1.3542,1.3528,1.354,1.3552,1.3529,1.3521,1.3537,1.3476,1.3501,1.3496,1.3495,1.3481,1.3472,1.3464,1.357,1.3571,1.3571,0,0,1.3387,1.3399,1.3383,1.3392,1.3407,1.3425,1.3421,1.3442,1.3451,1.3439,1.347,1.3464,1.3461,1.3468,1.3471,1.3414,1.3438,1.3413,1.3373,1.3357,1.335,1.3343,1.3322,1.3314,1.3409,1.3409,1.3409,0,1.3348,1.3341,1.3372,1.3362,1.3364,1.3403,1.3386,1.3393,1.3406,1.3406,1.3425,1.342,1.3431,1.341,1.3396,1.3398,1.3393,1.3411,1.3349,1.3342,1.3337,1.3316,1.3308,1.3406,1.3406,1.3406,1.3407,0,1.3292,1.3286,1.3271,1.3283,1.3284,1.3271,1.3298,1.3295,1.3314,1.333,1.3315,1.333,1.3332,1.3329,1.3348,1.331,1.332,1.3343,1.3376,1.3324,1.3305,1.3298,1.3401,1.3402,1.3403,1.3404,0,0,1.3201,1.323,1.3224,1.3229,1.3247,1.3243,1.323,1.3234,1.323,1.3237,1.3226,1.3222,1.3243,1.3246,1.3266,1.3252,1.3205,1.3277,1.3278,1.3262,1.3162,1.3143,1.3134,1.3221,1.3219,1.3218,1.316,0,1.3147,1.3128,1.3154,1.3129,1.3123,1.3159,1.3148,1.3157,1.3171,1.3168,1.3183,1.3179,1.3208,1.321,1.3198,1.3213,1.3185,1.3218,1.3209,1.3209,1.3204,1.3125,1.3106,1.3051,1.3154,1.3152,1.3152,0,1.3081,1.3086,1.306,1.3078,1.3077,1.3067,1.3071,1.3067,1.3078,1.3089,1.3092,1.3115,1.3103,1.3135,1.3117,1.3138,1.3136,1.3143,1.3141,1.3141,1.3176,1.3121,1.3034,1.3025,1.3141,1.3142,1.3142,0,1.3016,1.3016,1.3,1.3003,1.3025,1.3017,1.3025,1.3037,1.3037,1.304,1.304,1.3041,1.3041,1.3041,1.3064,1.3086,1.3042,1.3077,1.305,1.3049,1.3038,1.3039,1.2949,1.3039,1.3039,1.3039,1.3039,0,1.2952,1.2935,1.2971,1.2961,1.2941,1.2971,1.2951,1.2963,1.2973,1.2965,1.2996,1.2987,1.3018,1.3012,1.303,1.3011,1.3012,1.3019,1.3024,1.3016,1.3014,1.3014,1.3018,1.3037,1.3037,1.3038,1.3038,0,1.2876,1.29,1.2885,1.2906,1.2911,1.2896,1.2913,1.2904,1.292,1.2909,1.2908,1.2933,1.2927,1.295,1.2949,1.2961,1.2932,1.2944,1.2929,1.2932,1.2903,1.2905,1.2809,1.2797,1.2895,1.2895,1.2894,0,1.2833,1.2821,1.2841,1.2838,1.2845,1.284,1.284,1.2868,1.2866,1.2876,1.2865,1.2863,1.2862,1.2851,1.2868,1.2867,1.2878,1.2844,1.2878,1.2869,1.2876,1.2876,1.2874,1.2837,1.2836,1.2835,1.2834,0,1.2755,1.2767,1.2766,1.2768,1.2767,1.277,1.2775,1.2771,1.2801,1.2797,1.2793,1.2792,1.279,1.2787,1.2788,1.2796,1.2819,1.2823,1.2817,1.2808,1.2799,1.2802,1.2908,1.2825,1.2826,1.2827,1.2827,1.2827,1.2693,1.2683,1.2695,1.2692,1.2699,1.2703,1.2695,1.271,1.2706,1.2708,1.2724,1.2716,1.2725,1.273,1.2735,1.2728,1.2743,1.2734,1.2731,1.2728,1.2723,1.2801,1.2728,1.2728,1.2729,1.2729,1.2729,0,1.2615,1.2624,1.2621,1.2628,1.2625,1.2648,1.2655,1.265,1.2643,1.265,1.2649,1.2642,1.2638,1.2654,1.2653,1.2644,1.2654,1.2642,1.2642,1.2643,1.271,1.2715,1.2633,1.2633,1.2633,1.2633,1.2633,1.2634,1.2573,1.2557,1.257,1.2556,1.2566,1.2558,1.256,1.2563,1.2568,1.256,1.2557,1.2568,1.2578,1.2577,1.2574,1.2579,1.2576,1.256,1.2568,1.263,1.2639,1.2648,1.2653,1.2559,1.2559,1.2502,1.2502,1.2501]}]]